EN

Hourly Weather Telfs

Today, 26 November, Thursday

Time Temperature Precipitation Wind Pressure Humidity
00:00 +4°C° 0 mm 2 mps 694 mmHg 59%
01:00 +4°C° 0 mm 2 mps 694 mmHg 59%
02:00 +4°C° 0 mm 2 mps 694 mmHg 58%
03:00 +4°C° 0 mm 2 mps 694 mmHg 57%
04:00 +4°C° 0 mm 2 mps 694 mmHg 57%
05:00 +4°C° 0 mm 2 mps 694 mmHg 56%
06:00 +3°C° 0 mm 2 mps 694 mmHg 55%
07:00 +3°C° 0 mm 2 mps 694 mmHg 55%
08:00 +6°C° 0 mm 1 mps 694 mmHg 54%
09:00 +7°C° 0 mm 1 mps 694 mmHg 54%
10:00 +9°C° 0 mm 1 mps 694 mmHg 53%
11:00 +10°C° 0 mm 1 mps 694 mmHg 54%
12:00 +10°C° 0 mm 0 mps 694 mmHg 55%
13:00 +11°C° 0 mm 0 mps 694 mmHg 55%
14:00 +9°C° 0 mm 0 mps 694 mmHg 59%
15:00 +8°C° 0 mm 0 mps 693 mmHg 63%
16:00 +6°C° 0 mm 0 mps 693 mmHg 67%
17:00 +6°C° 0 mm 1 mps 693 mmHg 66%
18:00 +6°C° 0 mm 1 mps 693 mmHg 66%
19:00 +5°C° 0 mm 1 mps 693 mmHg 65%
20:00 +5°C° 0 mm 1 mps 693 mmHg 64%
21:00 +5°C° 0 mm 1 mps 693 mmHg 63%
22:00 +4°C° 0 mm 1 mps 693 mmHg 62%
23:00 +4°C° 0 mm 1 mps 693 mmHg 61%

Tomorrow, 27 November, Friday

Time Temperature Precipitation Wind Pressure Humidity
00:00 +4°C° 0 mm 1 mps 693 mmHg 61%
01:00 +4°C° 0 mm 1 mps 693 mmHg 60%
02:00 +4°C° 0 mm 1 mps 693 mmHg 59%
03:00 +4°C° 0 mm 1 mps 693 mmHg 59%
04:00 +4°C° 0 mm 1 mps 693 mmHg 59%
05:00 +4°C° 0 mm 1 mps 693 mmHg 58%
06:00 +4°C° 0 mm 1 mps 693 mmHg 58%
07:00 +4°C° 0 mm 1 mps 693 mmHg 58%
08:00 +5°C° 0 mm 1 mps 693 mmHg 57%
09:00 +7°C° 0 mm 1 mps 693 mmHg 56%
10:00 +7°C° 0 mm 0 mps 693 mmHg 55%
11:00 +8°C° 0 mm 0 mps 693 mmHg 55%
12:00 +9°C° 0 mm 0 mps 693 mmHg 55%
13:00 +10°C° 0 mm 0 mps 693 mmHg 56%
14:00 +9°C° 0 mm 0 mps 692 mmHg 60%
15:00 +7°C° 0 mm 0 mps 692 mmHg 64%
16:00 +5°C° 0 mm 0 mps 692 mmHg 68%
17:00 +6°C° 0 mm 1 mps 692 mmHg 67%
18:00 +5°C° 0 mm 1 mps 692 mmHg 67%
19:00 +5°C° 0 mm 1 mps 692 mmHg 66%
20:00 +4°C° 0 mm 1 mps 692 mmHg 65%
21:00 +4°C° 0 mm 1 mps 692 mmHg 64%
22:00 +3°C° 0 mm 2 mps 692 mmHg 63%
23:00 +3°C° 0 mm 2 mps 692 mmHg 61%

Day after tomorrow, 28 November, Saturday

Time Temperature Precipitation Wind Pressure Humidity
00:00 +3°C° 0 mm 2 mps 692 mmHg 60%
01:00 +3°C° 0 mm 2 mps 692 mmHg 59%
02:00 +3°C° 0 mm 2 mps 692 mmHg 58%
03:00 +3°C° 0 mm 2 mps 691 mmHg 57%
04:00 +3°C° 0 mm 2 mps 691 mmHg 56%
05:00 +3°C° 0 mm 2 mps 691 mmHg 55%
06:00 +4°C° 0 mm 1 mps 691 mmHg 54%
07:00 +4°C° 0 mm 1 mps 691 mmHg 53%
08:00 +6°C° 0 mm 1 mps 691 mmHg 52%
09:00 +7°C° 0 mm 1 mps 691 mmHg 52%
10:00 +8°C° 0 mm 0 mps 691 mmHg 51%
11:00 +8°C° 0 mm 0 mps 691 mmHg 52%
12:00 +9°C° 0 mm 0 mps 691 mmHg 53%
13:00 +10°C° 0 mm 0 mps 691 mmHg 54%
14:00 +8°C° 0 mm 0 mps 690 mmHg 59%
15:00 +7°C° 0 mm 0 mps 690 mmHg 64%
16:00 +5°C° 0 mm 0 mps 689 mmHg 69%
17:00 +5°C° 0 mm 1 mps 689 mmHg 69%
18:00 +4°C° 0 mm 1 mps 689 mmHg 69%
19:00 +4°C° 0 mm 1 mps 689 mmHg 69%
20:00 +3°C° 0 mm 1 mps 689 mmHg 68%
21:00 +3°C° 0 mm 1 mps 690 mmHg 66%
22:00 +3°C° 0 mm 1 mps 690 mmHg 65%
23:00 +3°C° 0 mm 1 mps 690 mmHg 65%

29 November, Sunday

Time Temperature Precipitation Wind Pressure Humidity
00:00 +3°C° 0 mm 1 mps 690 mmHg 64%
01:00 +3°C° 0 mm 1 mps 689 mmHg 63%
02:00 +3°C° 0 mm 1 mps 689 mmHg 64%
03:00 +2°C° 0 mm 1 mps 689 mmHg 64%
04:00 +2°C° 0 mm 1 mps 689 mmHg 65%
05:00 +2°C° 0 mm 1 mps 689 mmHg 65%
06:00 +2°C° 0 mm 1 mps 689 mmHg 65%
07:00 +2°C° 0 mm 1 mps 689 mmHg 66%
08:00 +3°C° 0 mm 1 mps 689 mmHg 64%
09:00 +4°C° 0 mm 1 mps 690 mmHg 63%
10:00 +5°C° 0 mm 1 mps 690 mmHg 61%
11:00 +6°C° 0 mm 1 mps 690 mmHg 62%
12:00 +7°C° 0 mm 1 mps 690 mmHg 62%
13:00 +7°C° 0 mm 1 mps 690 mmHg 62%
14:00 +6°C° 0 mm 1 mps 689 mmHg 69%
15:00 +4°C° 0 mm 1 mps 689 mmHg 76%
16:00 +3°C° 0 mm 1 mps 689 mmHg 82%
17:00 +2°C° 0 mm 1 mps 689 mmHg 82%
18:00 +1°C° 0 mm 1 mps 690 mmHg 82%
19:00 +1°C° 0 mm 1 mps 690 mmHg 82%
20:00 +1°C° 0 mm 1 mps 691 mmHg 81%
21:00 0°C° 0 mm 1 mps 691 mmHg 79%
22:00 0°C° 0 mm 1 mps 691 mmHg 78%
23:00 0°C° 0 mm 1 mps 691 mmHg 77%

30 November, Monday

Time Temperature Precipitation Wind Pressure Humidity
00:00 0°C° 0 mm 1 mps 691 mmHg 76%
01:00 0°C° 0 mm 1 mps 691 mmHg 75%
02:00 0°C° 0 mm 1 mps 691 mmHg 72%
03:00 0°C° 0 mm 1 mps 692 mmHg 70%
04:00 -1°C° 0 mm 1 mps 692 mmHg 67%
05:00 -1°C° 0 mm 1 mps 692 mmHg 65%
06:00 -1°C° 0 mm 1 mps 692 mmHg 63%
07:00 -1°C° 0 mm 1 mps 693 mmHg 61%
08:00 0°C° 0 mm 1 mps 693 mmHg 58%
09:00 +2°C° 0 mm 1 mps 693 mmHg 55%
10:00 +3°C° 0 mm 1 mps 694 mmHg 52%
11:00 +4°C° 0 mm 1 mps 694 mmHg 51%
12:00 +5°C° 0 mm 1 mps 694 mmHg 50%
13:00 +5°C° 0 mm 1 mps 694 mmHg 49%
14:00 +4°C° 0 mm 1 mps 694 mmHg 54%
15:00 +3°C° 0 mm 1 mps 694 mmHg 60%
16:00 +1°C° 0 mm 1 mps 694 mmHg 65%
17:00 +1°C° 0 mm 1 mps 694 mmHg 63%
18:00 0°C° 0 mm 1 mps 694 mmHg 61%
19:00 0°C° 0 mm 1 mps 694 mmHg 60%
20:00 0°C° 0 mm 1 mps 695 mmHg 56%
21:00 0°C° 0 mm 1 mps 695 mmHg 53%
22:00 0°C° 0 mm 1 mps 695 mmHg 50%
23:00 0°C° 0 mm 1 mps 695 mmHg 47%

1 December, Tuesday

Time Temperature Precipitation Wind Pressure Humidity
00:00 0°C° 0 mm 1 mps 695 mmHg 44%
01:00 0°C° 0 mm 1 mps 695 mmHg 40%
02:00 0°C° 0 mm 1 mps 695 mmHg 38%
03:00 0°C° 0 mm 1 mps 695 mmHg 36%
04:00 0°C° 0 mm 1 mps 695 mmHg 33%
05:00 0°C° 0 mm 1 mps 695 mmHg 32%
06:00 0°C° 0 mm 1 mps 695 mmHg 31%
07:00 0°C° 0 mm 1 mps 696 mmHg 31%
08:00 +1°C° 0 mm 1 mps 696 mmHg 31%
09:00 +2°C° 0 mm 0 mps 696 mmHg 32%
10:00 +3°C° 0 mm 0 mps 697 mmHg 33%
11:00 +4°C° 0 mm 0 mps 696 mmHg 32%
12:00 +5°C° 0 mm 0 mps 696 mmHg 32%
13:00 +7°C° 0 mm 1 mps 696 mmHg 32%
14:00 +5°C° 0 mm 1 mps 696 mmHg 36%
15:00 +4°C° 0 mm 1 mps 696 mmHg 40%
16:00 +2°C° 0 mm 0 mps 695 mmHg 44%
17:00 +2°C° 0 mm 1 mps 696 mmHg 42%
18:00 +2°C° 0 mm 1 mps 696 mmHg 40%
19:00 +2°C° 0 mm 1 mps 696 mmHg 38%
20:00 +2°C° 0 mm 1 mps 696 mmHg 37%
21:00 +2°C° 0 mm 1 mps 696 mmHg 36%
22:00 +2°C° 0 mm 1 mps 696 mmHg 35%
23:00 +2°C° 0 mm 1 mps 696 mmHg 35%
Show more

We Need Your Consent

Meteoprog and our Service Providers may store and access personal data such as cookies, device identifiers or other similar technologies on your device and process such data to personalise content and ads, as well as provide social media features and to analyse the traffic.

  • Store and/or access information on your device

    Cookies, device identifiers or other information can be stored or accessed on your device for the purposes indicated above.

  • Personalised ads and content, ad and content measurement, audience insights, and products development

    Ads and content can be personalised based on a profile. More data can be added to better personalise ads and content. Ad and content performance can be measured. Insights about the audience who saw the ads and content can be derived. Such data can be used to develop or improve user’s experience, systems and software.

By clicking ‘I Agree’ you will allow the use of indicated cookies, device identifiers, web beacons or other similar technologies. Your settings can be changed in the browser on your device.

For certain purposes, legitimate interests may be relied on, rather than consent. You can read more about this in our Privacy and Cookie Policy.